Regional Weather Roundup
Issued by NWS Sterling, VA

Home | Current Version | Previous Version | Text Only | Print | Product List | Glossary Off
Versions: 1 2 3 4 5 6 7 8 9 10 11 12 13 14 15 16 17 18 19 20 21 22 23 24 25 26 27 28 29 30 31 32 33 34 35 36 37 38 39 40 41 42 43 44 45 46 47 48 49 50

000
ASUS41 KLWX 060310
RWRLWX

REGIONAL WEATHER ROUNDUP
NATIONAL WEATHER SERVICE BALTIMORE MD/WASHINGTON DC
1000 PM EST THU MAR 05 2015

Note: "FAIR" indicates few or no clouds below 12,000 feet
with no significant weather and/or obstructions to visibility.
 TC=TEMPERATURE CELSIUS

 * =Non NWS site. Station does not report precipitation (e.g. rain,
    snow, etc.), thunder, or fog.

DCZ001-MDZ009-015-VAZ040>042-051-053>054-060400-
WASHINGTON METRO

CITY           SKY/WX    TMP DP  RH WIND       PRES   REMARKS
WASHINGTON NAT CLOUDY    26  13  57 NW15      30.44R WCI  14
DULLES         CLOUDY    22  12  65 NW14      30.42R WCI   9
ANDREWS AFB    FLURRIES  23  16  75 NW12      30.40R WCI  11
FT BELVOIR     DRIZZLE   24  17  75 NW9       30.43R WCI  14
QUANTICO       CLOUDY    25  18  74 NE10G23   30.44R WCI  15
COLLEGE PARK*  CLOUDY    27  19  74 N7        30.41R
LEESBURG*      CLOUDY    23  14  68 N14       30.44R WCI  11
MANASSAS*      CLOUDY    25  19  80 N13       30.44R WCI  13
GAITHERSBURG*  CLOUDY    19  10  68 NW6       30.43R

$$

MDZ006>007-011-014-060400-
BALTIMORE METRO

CITY           SKY/WX    TMP DP  RH WIND       PRES   REMARKS
BWI AIRPORT    CLOUDY    22  15  75 NW8       30.40R WCI  12
MD SCIENCE CTR   N/A     24  15  68 MISG      30.35F
MARTIN STATE   CLEAR     23  18  80 NW6       30.41S
ANNAPOLIS      CLOUDY    24  18  77 NW10      30.40R WCI  14
FORT MEADE*    CLOUDY    23  18  80 CALM      30.43R

$$

MDZ012-015-019>023-060400-
MARYLAND EASTERN SHORE

CITY           SKY/WX    TMP DP  RH WIND       PRES   REMARKS
OCEAN CITY     CLOUDY    22  18  85 N14G25    30.34R WCI   9
SALISBURY      CLOUDY    24  18  77 N13       30.36R HAZE    WCI  12
BAY BRIDGE AP*   N/A     25  18  74 NW10G18   30.40R WCI  15
CAMBRIDGE*     CLOUDY    27  19  74 N12       30.38R WCI  16
EASTON*        CLOUDY    25  18  76 N12       30.42R WCI  14

$$

MDZ017>025-060400-
SOUTHERN MARYLAND

CITY           SKY/WX    TMP DP  RH WIND       PRES   REMARKS
PATUXENT RIVER MIX PCPN  24  18  77 N15       30.40R WCI  11
ST INIGOES     CLOUDY    25  19  78 VRB3      30.40R
LEONARDTOWN*   CLOUDY    25  21  86 CALM      30.41R

$$

MDZ003>005-060400-
NORTH CENTRAL MARYLAND

CITY           SKY/WX    TMP DP  RH WIND       PRES   REMARKS
FREDERICK*     MOCLDY    25   7  46 N8        30.45R WCI  16
HAGERSTOWN APT PTCLDY    17   3  54 N3        30.42R
WESTMINSTER*   MOCLDY    19   9  63 NW10      30.37R WCI   8

$$

MDZ501>502-060400-
WESTERN MARYLAND

CITY           SKY/WX    TMP DP  RH WIND       PRES   REMARKS
OAKLAND*       FAIR       3   3 100 NW7       30.27R
CUMBERLAND*    FAIR      19   3  49 N12G20    30.50R WCI   7

$$

VAZ025>031-060400-
SHENANDOAH VALLEY

CITY           SKY/WX    TMP DP  RH WIND       PRES   REMARKS
WINCHESTER*    MOCLDY    21   5  49 N10G17    30.42R WCI  10
FRONT ROYAL*   MOCLDY    21  10  63 N6        30.41R
LURAY*         CLOUDY    25  14  63 NW5G21    30.40R
NEW MARKET*    MOCLDY    21   9  60 N5        30.39R
STAUNTON*      CLOUDY    22  17  81 N6        30.38R
WAYNESBORO*    MOCLDY    20  17  88 N9        30.34R WCI   9

$$

WVZ021-048>050-054>055-060400-
EASTERN WEST VIRGINIA PANHANDLE

CITY           SKY/WX    TMP DP  RH WIND       PRES   REMARKS
MARTINSBURG    PTCLDY    20   4  50 NW13      30.44R WCI   7
PETERSBURG*    NOT AVBL

$$

VAZ036>039-050-060400-
CENTRAL FOOTHILLS

CITY           SKY/WX    TMP DP  RH WIND       PRES   REMARKS
CHARLOTTESVILL CLOUDY    25  17  72 N7        30.38R
CULPEPER*      CLOUDY    25  16  68 N6        30.43R
ORANGE*        CLOUDY    27  19  74 N6        30.42R
GORDONSVILLE*  CLOUDY    24  18  78 NE3       30.40R
WARRENTON*     CLOUDY    24  18  78 N7        30.42R

$$

VAZ055>057-060400-
NORTH AND CENTRAL PIEDMONT

CITY           SKY/WX    TMP DP  RH WIND       PRES   REMARKS
FREDERICKSBRG* CLOUDY    27  21  78 NW8G17    30.42R WCI  18
STAFFORD*      CLOUDY    24  20  84 CALM      30.46R

$$

NCZ024-NYZ072-PAZ021-071-VAZ022-071-060400-
OTHER REGIONAL OBSERVATIONS

CITY           SKY/WX    TMP DP  RH WIND       PRES   REMARKS
NEW YORK CITY  CLOUDY    21   6  52 VRB6      30.35R
PHILADELPHIA   CLOUDY    22  13  68 N12       30.38R WCI  10
PITTSBURGH     PTCLDY     9  -1  64 N9        30.47R WCI  -4
ROANOKE        CLOUDY    25  16  68 N5        30.38R
RICHMOND       LGT SNOW  27  22  81 N9        30.39R FOG     WCI  18
RALEIGH        CLOUDY    32  27  81 NE9       30.32R WCI  24

$$

ANZ530>537-060400-
MARINE OBSERVATIONS

STATION/POSITION TIME  TEMP    WIND        PRES
                       AIR SEA DIR/SP/G
                 (UTC) (F)     (DEG/KT/KT) (MB)
THOMAS PT LIGHT  0300          130/ 10/ 12   N/A
BALT KEY BRIDGE  0200   21     320/ 10/ 13 1029.0R
COVE POINT       0200   22      10/ 12/ 15 1027.8R
LEWISETTA        0200   25 33  360/ 11/ 17 1027.8R
SOLOMONS ISLAND  0200      33                N/A

$$




USA.gov is the U.S. government's official web portal to all federal, state and local government web resources and services.